Location: Asheville, NC
(35.6000°N, 82.5500°W)
Time: 03:51:54
(UTC-04:00)

Tiangong 2 - Pass Details

Date: 07 October 2017
Orbit: 388 x 392 km, 42.8° (Epoch: 16 October)

Event Time Altitude Azimuth Distance (km) Brightness Sun altitude
Exits shadow 06:45:16 11° 237° (WSW) 1,375 3.4 -9.9°
Maximum altitude 06:48:22 75° 152° (SSE) 406 1.2 -9.3°
Drops below altitude 10° 06:51:33 10° 66° (ENE) 1,420 5.1 -8.7°
Sets 06:53:39 0° 65° (ENE) 2,278 6.3 -8.2°
